Sheppard AFB, TX

11:50 PM CST on February 24, 2017 (GMT -0600)
Sheppard Air Force Base-Wichita Falls Municipal

Weather History for KSPS - July, 2013

Change the Weather History Date:

Thursday, July 25, 2013

  Actual Average Record
Temperature  
Mean Temperature 82 °F 85 °F  
Max Temperature 89 °F 98 °F 111 °F (1964)
Min Temperature 75 °F 73 °F 64 °F (2004)
Cooling Degree Days 17 20  
Month to date cooling degree days 454 480  
Year to date cooling degree days 1341 1235  
Growing Degree Days 32 (Base 50)    
Moisture  
Dew Point 72 °F    
Average Humidity 75    
Maximum Humidity 87    
Minimum Humidity 63    
Precipitation  
Precipitation 0.05 in 0.05 in 1.32 in (1926)
Month to date precipitation 2.84 1.29  
Year to date precipitation 12.96 16.93  
Sea Level Pressure  
Sea Level Pressure 30.00 in    
Wind  
Wind Speed 9 mph (East)    
Max Wind Speed 18 mph    
Max Gust Speed 21 mph    
Visibility 10 miles    
Events Rain , Thunderstorm    
T = Trace of Precipitation, MM = Missing Value Source: NWS Daily Summary

Daily Weather History Graph

Daily Weather History Graph

Search for Another Location

Airport or City:

Trip Planner

Search our weather history database for the weather conditions in past years. The results will help you decide how hot, cold, wet, or windy it might be!

Date:

Astronomy

Jul. 25, 2013 Rise Set
Actual Time 6:40 AM CDT 8:39 PM CDT
Civil Twilight 6:12 AM CDT 9:07 PM CDT
Nautical Twilight 5:38 AM CDT 9:41 PM CDT
Astronomical Twilight 5:02 AM CDT 10:17 PM CDT
Moon 10:35 PM CDT 9:59 AM CDT
Length of Visible Light 14h 54m
Length of Day
13h 59m
Waning Gibbous, 88% of the Moon is Illuminated
Jul 25
Waning Gibbous
Jul 29
Last Quarter
Aug 6
New
Aug 14
First Quarter
Aug 20
Full

Hourly Weather History & Observations

Time (CDT) Temp. Heat Index Dew Point Humidity Pressure Visibility Wind Dir Wind Speed Gust Speed Precip Events Conditions
12:52 AM 79.0 °F - 72.0 °F 79% 29.96 in 10.0 mi ESE 8.1 mph - N/A   Mostly Cloudy
1:52 AM 78.1 °F - 71.1 °F 79% 29.96 in 10.0 mi ESE 8.1 mph - N/A   Scattered Clouds
2:52 AM 75.9 °F - 71.1 °F 85% 29.96 in 10.0 mi ESE 4.6 mph - N/A   Clear
3:52 AM 75.0 °F - 71.1 °F 87% 29.96 in 10.0 mi East 3.5 mph - N/A   Clear
4:52 AM 75.0 °F - 71.1 °F 87% 29.97 in 10.0 mi East 5.8 mph - N/A   Mostly Cloudy
5:52 AM 75.0 °F - 71.1 °F 87% 29.98 in 10.0 mi East 5.8 mph - N/A   Mostly Cloudy
6:52 AM 75.0 °F - 70.0 °F 84% 30.00 in 10.0 mi East 5.8 mph - N/A   Mostly Cloudy
7:52 AM 75.0 °F - 71.1 °F 87% 30.00 in 10.0 mi ENE 6.9 mph - N/A   Mostly Cloudy
8:52 AM 78.1 °F - 71.1 °F 79% 30.03 in 10.0 mi NE 9.2 mph - N/A   Mostly Cloudy
9:25 AM 77.0 °F - 69.8 °F 78% 30.08 in 10.0 mi NE 5.8 mph - N/A   Overcast
9:52 AM 77.0 °F - 71.1 °F 82% 30.05 in 10.0 mi NNE 8.1 mph - N/A   Overcast
10:44 AM 77.0 °F - 71.6 °F 83% 30.10 in 10.0 mi North 6.9 mph - N/A   Mostly Cloudy
10:52 AM 77.0 °F - 71.1 °F 82% 30.06 in 10.0 mi NNE 4.6 mph - N/A   Mostly Cloudy
11:12 AM 77.0 °F - 71.6 °F 83% 30.10 in 10.0 mi NNE 5.8 mph - N/A   Overcast
11:18 AM 77.0 °F - 71.6 °F 83% 30.09 in 10.0 mi NNE 6.9 mph - N/A Thunderstorm Mostly Cloudy
11:37 AM 77.0 °F - 71.6 °F 83% 30.10 in 10.0 mi East 3.5 mph - N/A   Mostly Cloudy
11:50 AM 77.0 °F - 71.6 °F 83% 30.09 in 5.0 mi ESE 8.1 mph - 0.01 in Rain Rain
11:52 AM 75.9 °F - 72.0 °F 87% 30.05 in 4.0 mi SE 9.2 mph - 0.02 in Rain Heavy Rain
12:52 PM 77.0 °F - 73.9 °F 90% 30.04 in 10.0 mi South 11.5 mph - 0.03 in   Overcast
1:52 PM 84.0 °F 90.2 °F 73.0 °F 69% 30.02 in 10.0 mi NE 8.1 mph - N/A   Overcast
2:52 PM 82.9 °F 88.0 °F 72.0 °F 69% 30.02 in 10.0 mi East 8.1 mph - N/A   Mostly Cloudy
3:52 PM 84.9 °F 90.7 °F 72.0 °F 65% 30.01 in 10.0 mi ESE 9.2 mph - N/A   Mostly Cloudy
4:52 PM 86.0 °F 93.0 °F 73.0 °F 65% 29.98 in 10.0 mi East 11.5 mph - N/A   Mostly Cloudy
5:52 PM 88.0 °F 95.6 °F 73.0 °F 61% 29.96 in 10.0 mi SE 15.0 mph - N/A   Mostly Cloudy
6:52 PM 87.1 °F 94.5 °F 73.0 °F 63% 29.94 in 9.0 mi ESE 12.7 mph - N/A   Mostly Cloudy
7:52 PM 86.0 °F 93.0 °F 73.0 °F 65% 29.94 in 9.0 mi ESE 11.5 mph - N/A   Mostly Cloudy
8:52 PM 84.0 °F 91.2 °F 73.9 °F 72% 29.95 in 10.0 mi SE 8.1 mph - N/A   Mostly Cloudy
9:52 PM 82.9 °F 88.8 °F 73.0 °F 72% 29.93 in 9.0 mi SE 11.5 mph - N/A   Clear
10:52 PM 82.0 °F 87.4 °F 73.0 °F 74% 29.93 in 9.0 mi SE 12.7 mph - N/A   Clear
11:52 PM 82.0 °F 87.4 °F 73.0 °F 74% 29.94 in 10.0 mi SSE 6.9 mph - N/A   Clear